Погода в Бродарице

Хорватия     43°40′47″N   15°55′06″E
темп.,
°C
ветер,
м/с
пор.,
м/с
влажн.,
%
обл.,
%
осадки,
мм/ч
давл.,
гПа
погр.,
м
15 мая, сб
сб1523:00+14вюв51071100 0.1 1011418
02:00+14вюв4765100 0.1 1010272
05:00+13ссв2266100 0.0 100840
08:00+13св2371100 0.1 1010164
11:00+16св225680 0.1 1010993
14:00+17юз546387 0.3 1011997
17:00+16з336657 0.3 1011855
20:00+13зюз117893 0.3 101122
16 мая, вс
вс1623:00+12юв228229 0.0 101244
02:00+12юв2281100 0.0 101288
05:00+12юв3484100 0.1 1011115
08:00+13вюв3583100 0.3 1012204
11:00+15юв4674100 0.0 1012486
14:00+17юв4566100 0.0 1012600
17:00+17юв4769100 0.0 1010489
20:00+15юв4975100 0.0 1010331
17 мая, пн
пн1723:00+15юв61272100 0.0 1010470
02:00+16юв51266100 0.0 1009484
05:00+15юв61368100 0.0 1007418
08:00+16юв41075100 0.1 1009573
11:00+20ююв66655 0.4 1010937
14:00+18ююв447397 0.8 1010435
17:00+20ю4365100 0.1 1009770
20:00+16юв4682100 0.4 1010104
18 мая, вт
вт1823:00+16юв347986 0.3 101184
02:00+14в228550 0.4 101116
05:00+15зсз118057 0.0 101120
08:00+16сз017699 0.1 1013217
11:00+19сз3454100 0.1 10131220
14:00+20з57500 0.1 10121624
17:00+19зсз4545100 0.0 1011917
20:00+16с1161100 0.0 101112
19 мая, ср
ср1923:00+13юв008260 1.1 101329
02:00+13сз238699 2.9 1012106
05:00+11ссв41083100 0.4 1014388
08:00+12ссв8116788 0.4 1016772
11:00+16ссв675018 0.0 10181376
14:00+18с67452 0.0 10171447
17:00+19сз45448 0.0 10161946
20:00+13зсз3573100 0.0 1018142